20-05-2023, 00:00:00,     48,    0.0,    6.0,   0.00,   0.00, 1023.9,   98.6, -999.0
20-05-2023, 00:00:10,     48,    0.0,    6.1,   0.00,   0.00, 1023.9,   98.7, -999.0
20-05-2023, 00:00:20,     48,    0.0,    5.9,   0.00,   0.00, 1023.9,   98.7, -999.0
20-05-2023, 00:00:30,     48,    0.0,    6.0,   0.00,   0.00, 1023.9,   98.7, -999.0
20-05-2023, 00:00:40,     47,    0.0,    6.0,   0.00,   0.00, 1023.9,   98.7, -999.0
20-05-2023, 00:00:50,     48,    0.0,    6.0,   0.00,   0.00, 1023.9,   98.7, -999.0
20-05-2023, 00:01:00,     48,    0.0,    5.9,   0.00,   0.00, 1023.9,   98.7, -999.0
20-05-2023, 00:01:10,     47,    0.0,    6.0,   0.00,   0.00, 1023.9,   98.7, -999.0
20-05-2023, 00:01:20,     47,    0.0,    6.0,   0.00,   0.00, 1023.9,   98.6, -999.0
20-05-2023, 00:01:30,     47,    0.0,    6.0,   0.00,   0.00, 1023.9,   98.6, -999.0
20-05-2023, 00:01:40,     47,    0.0,    6.0,   0.00,   0.00, 1023.9,   98.6, -999.0
20-05-2023, 00:01:50,     48,    0.0,    5.9,   0.00,   0.00, 1023.9,   98.7, -999.0
20-05-2023, 00:02:00,     48,    0.0,    6.0,   0.00,   0.00, 1023.9,   98.7, -999.0
20-05-2023, 00:02:10,     47,    0.0,    5.9,   0.00,   0.00, 1023.9,   98.6, -999.0
20-05-2023, 00:02:20,     47,    0.0,    6.0,   0.00,   0.00, 1023.9,   98.6, -999.0
20-05-2023, 00:02:30,     48,    0.0,    6.0,   0.00,   0.00, 1023.9,   98.7, -999.0
20-05-2023, 00:02:40,     47,    0.0,    5.9,   0.00,   0.00, 1023.9,   98.6, -999.0
20-05-2023, 00:02:50,     48,    0.0,    6.0,   0.00,   0.00, 1023.9,   98.6, -999.0
20-05-2023, 00:03:00,     48,    0.0,    5.9,   0.00,   0.00, 1023.9,   98.7, -999.0
20-05-2023, 00:03:10,     47,    0.0,    5.9,   0.00,   0.00, 1023.9,   98.7, -999.0
20-05-2023, 00:03:20,     48,    0.0,    5.9,   0.00,   0.00, 1023.9,   98.7, -999.0
20-05-2023, 00:03:30,     47,    0.0,    6.0,   0.00,   0.00, 1023.9,   98.7, -999.0
20-05-2023, 00:03:40,     48,    0.0,    6.0,   0.00,   0.00, 1023.9,   98.7, -999.0
20-05-2023, 00:03:50,     48,    0.0,    6.0,   0.00,   0.00, 1023.9,   98.6, -999.0
20-05-2023, 00:04:00,     48,    0.0,    5.9,   0.00,   0.00, 1023.9,   98.7, -999.0
20-05-2023, 00:04:10,     48,    0.0,    5.9,   0.00,   0.00, 1023.9,   98.7, -999.0
20-05-2023, 00:04:20,     47,    0.0,    5.9,   0.00,   0.00, 1023.9,   98.7, -999.0
20-05-2023, 00:04:30,     48,    0.0,    5.9,   0.00,   0.00, 1023.9,   98.6, -999.0
20-05-2023, 00:04:40,     47,    0.0,    6.0,   0.00,   0.00, 1023.9,   98.7, -999.0
20-05-2023, 00:04:50,     47,    0.0,    5.9,   0.00,   0.00, 1023.9,   98.6, -999.0
20-05-2023, 00:05:00,     47,    0.0,    5.8,   0.00,   0.00, 1023.9,   98.7, -999.0
20-05-2023, 00:05:10,     48,    0.0,    5.9,   0.00,   0.00, 1023.9,   98.6, -999.0
20-05-2023, 00:05:20,     48,    0.0,    5.9,   0.00,   0.00, 1023.9,   98.6, -999.0
20-05-2023, 00:05:29,     47,    0.0,    5.8,   0.00,   0.00, 1023.9,   98.7, -999.0
20-05-2023, 00:05:40,     47,    0.0,    5.8,   0.00,   0.00, 1023.9,   98.7, -999.0
20-05-2023, 00:05:50,     48,    0.0,    5.8,   0.00,   0.00, 1023.9,   98.7, -999.0
20-05-2023, 00:05:59,     48,    0.0,    5.8,   0.00,   0.00, 1023.9,   98.7, -999.0
20-05-2023, 00:06:09,     43,    0.0,    5.9,   0.00,   0.00, 1023.9,   98.7, -999.0
20-05-2023, 00:06:20,     35,    0.0,    5.8,   0.00,   0.00, 1023.9,   98.6, -999.0
20-05-2023, 00:06:30,     35,    0.0,    5.9,   0.00,   0.00, 1023.9,   98.7, -999.0
20-05-2023, 00:06:39,     35,    0.0,    5.9,   0.00,   0.00, 1023.9,   98.6, -999.0
20-05-2023, 00:06:49,     35,    0.0,    5.9,   0.00,   0.00, 1023.9,   98.6, -999.0
20-05-2023, 00:07:00,     35,    0.0,    5.9,   0.00,   0.00, 1023.9,   98.7, -999.0
20-05-2023, 00:07:09,     35,    0.0,    5.8,   0.00,   0.00, 1023.9,   98.6, -999.0
20-05-2023, 00:07:19,     35,    0.0,    5.9,   0.00,   0.00, 1023.9,   98.7, -999.0
20-05-2023, 00:07:30,     35,    0.0,    5.9,   0.00,   0.00, 1023.9,   98.6, -999.0
20-05-2023, 00:07:40,     35,    0.0,    5.8,   0.00,   0.00, 1023.9,   98.6, -999.0
20-05-2023, 00:07:49,     15,    1.3,    6.0,   0.00,   0.00, 1024.0,   99.0, -999.0
20-05-2023, 00:07:59,      0,    1.9,    6.0,   0.00,   0.00, 1024.0,   99.1, -999.0
20-05-2023, 00:08:10,      0,    0.7,    5.8,   0.00,   0.00, 1024.0,   99.1, -999.0
20-05-2023, 00:08:19,      0,    0.3,    5.9,   0.00,   0.00, 1024.0,   98.9, -999.0
20-05-2023, 00:08:29,      0,    0.0,    5.9,   0.00,   0.00, 1023.9,   30.9, -999.0
20-05-2023, 00:08:39,      0,    0.0,    5.8,   0.00,   0.00, 1023.9,    0.6, -999.0
20-05-2023, 00:08:49,      0,    0.0,    5.8,   0.00,   0.00, 1023.9,    0.5, -999.0
20-05-2023, 00:08:59,      0,    0.0,    5.8,   0.00,   0.00, 1023.9,    0.6, -999.0
20-05-2023, 00:09:09,      0,    0.0,    5.9,   0.00,   0.00, 1023.9,    0.7, -999.0
20-05-2023, 00:09:19,      0,    0.0,    5.8,   0.00,   0.00, 1023.9,    0.5, -999.0
20-05-2023, 00:09:29,     35,    0.7,    5.7,   0.00,   0.00, 1023.9,    0.6, -999.0
20-05-2023, 00:09:39,     35,    0.3,    5.9,   0.00,   0.00, 1024.0,    0.6, -999.0
20-05-2023, 00:09:49,     35,    0.0,    5.9,   0.00,   0.00, 1023.9,    0.5, -999.0
20-05-2023, 00:09:59,     35,    0.0,    5.9,   0.00,   0.00, 1023.9,    0.6, -999.0
20-05-2023, 00:10:09,     35,    0.0,    5.8,   0.00,   0.00, 1023.9,    0.5, -999.0
20-05-2023, 00:10:19,     35,    0.0,    5.9,   0.00,   0.00, 1023.9,    0.7, -999.0
20-05-2023, 00:10:29,     35,    0.0,    5.8,   0.00,   0.00, 1023.9,    0.5, -999.0
20-05-2023, 00:10:39,     35,    0.0,    5.9,   0.00,   0.00, 1023.9,    0.7, -999.0
20-05-2023, 00:10:49,     35,    0.0,    5.9,   0.00,   0.00, 1023.9,    0.4, -999.0
20-05-2023, 00:10:59,     35,    0.0,    5.8,   0.00,   0.00, 1023.9,    0.7, -999.0
20-05-2023, 00:11:09,     35,    0.0,    5.8,   0.00,   0.00, 1023.9,    0.7, -999.0
20-05-2023, 00:11:19,      2,    0.1,    5.8,   0.00,   0.00, 1024.0,    0.6, -999.0
20-05-2023, 00:11:29,      2,    0.0,    5.8,   0.00,   0.00, 1023.9,    0.7, -999.0
20-05-2023, 00:11:39,      2,    0.0,    5.8,   0.00,   0.00, 1023.9,    0.6, -999.0
20-05-2023, 00:11:49,     33,    0.5,    5.8,   0.00,   0.00, 1024.0,    0.9, -999.0
20-05-2023, 00:11:59,     33,    0.0,    5.8,   0.00,   0.00, 1023.9,    0.5, -999.0
20-05-2023, 00:12:09,     32,    0.0,    5.8,   0.00,   0.00, 1023.9,    0.7, -999.0
20-05-2023, 00:12:19,     33,    0.0,    5.8,   0.00,   0.00, 1023.9,    0.5, -999.0
20-05-2023, 00:12:29,     35,    0.0,    5.7,   0.00,   0.00, 1023.9,    0.6, -999.0
20-05-2023, 00:12:39,     32,    0.0,    5.8,   0.00,   0.00, 1023.9,    0.7, -999.0
20-05-2023, 00:12:49,     30,    0.0,    5.7,   0.00,   0.00, 1023.9,    0.9, -999.0
20-05-2023, 00:12:59,     31,    0.0,    5.6,   0.00,   0.00, 1023.9,    0.7, -999.0
20-05-2023, 00:13:09,     31,    0.0,    5.6,   0.00,   0.00, 1023.9,    0.7, -999.0
20-05-2023, 00:13:19,     31,    0.7,    5.6,   0.00,   0.00, 1024.0,    0.9, -999.0
20-05-2023, 00:13:29,     32,    0.0,    5.7,   0.00,   0.00, 1023.9,    0.7, -999.0
20-05-2023, 00:13:39,     31,    0.0,    5.7,   0.00,   0.00, 1023.9,    0.8, -999.0
20-05-2023, 00:13:48,     31,    0.0,    5.6,   0.00,   0.00, 1023.9,    0.8, -999.0
20-05-2023, 00:13:59,     31,    0.0,    5.7,   0.00,   0.00, 1023.9,    0.6, -999.0
20-05-2023, 00:14:09,     31,    0.0,    5.6,   0.00,   0.00, 1023.9,    0.6, -999.0
20-05-2023, 00:14:19,     31,    0.0,    5.8,   0.00,   0.00, 1023.9,    0.8, -999.0
20-05-2023, 00:14:28,     26,    0.8,    5.7,   0.00,   0.00, 1024.0,    0.9, -999.0
20-05-2023, 00:14:39,     24,    0.6,    5.7,   0.00,   0.00, 1024.0,    0.7, -999.0
20-05-2023, 00:14:49,     24,    0.7,    5.8,   0.00,   0.00, 1024.0,    0.8, -999.0
20-05-2023, 00:14:58,     52,    0.4,    5.8,   0.00,   0.00, 1024.0,    0.5, -999.0
20-05-2023, 00:15:08,     52,    0.0,    5.7,   0.00,   0.00, 1023.9,    0.7, -999.0
20-05-2023, 00:15:19,     52,    0.0,    5.6,   0.00,   0.00, 1023.9,    0.6, -999.0
20-05-2023, 00:15:28,     52,    0.0,    5.7,   0.00,   0.00, 1023.9,    0.5, -999.0
20-05-2023, 00:15:38,     52,    0.0,    5.6,   0.00,   0.00, 1023.9,    0.4, -999.0
20-05-2023, 00:15:49,     51,    0.0,    5.7,   0.00,   0.00, 1023.9,    0.7, -999.0
20-05-2023, 00:15:59,     52,    0.0,    5.7,   0.00,   0.00, 1023.9,    0.8, -999.0
20-05-2023, 00:16:08,     52,    0.0,    5.6,   0.00,   0.00, 1023.9,    0.4, -999.0
20-05-2023, 00:16:18,     52,    0.0,    5.6,   0.00,   0.00, 1023.9,    1.0, -999.0
20-05-2023, 00:16:29,     52,    0.0,    5.5,   0.00,   0.00, 1023.9,    0.7, -999.0
20-05-2023, 00:16:38,     52,    0.0,    5.5,   0.00,   0.00, 1023.9,    0.7, -999.0
20-05-2023, 00:16:48,     52,    0.0,    5.6,   0.00,   0.00, 1023.9,    0.7, -999.0
20-05-2023, 00:16:58,     52,    0.6,    5.6,   0.00,   0.00, 1024.0,    0.4, -999.0
20-05-2023, 00:17:08,     52,    0.1,    5.7,   0.00,   0.00, 1024.0,    0.4, -999.0
20-05-2023, 00:17:18,     51,    1.2,    5.7,   0.00,   0.00, 1024.0,    0.7, -999.0
20-05-2023, 00:17:28,     51,    0.3,    5.7,   0.00,   0.00, 1024.0,    0.8, -999.0
20-05-2023, 00:17:38,     51,    0.0,    5.6,   0.00,   0.00, 1023.9,    1.2, -999.0
20-05-2023, 00:17:48,     51,    0.0,    5.7,   0.00,   0.00, 1023.9,    0.7, -999.0
20-05-2023, 00:17:58,     51,    0.0,    5.6,   0.00,   0.00, 1023.9,    0.3, -999.0
20-05-2023, 00:18:08,     39,    0.2,    5.6,   0.00,   0.00, 1023.9,    1.2, -999.0
20-05-2023, 00:18:18,     39,    0.6,    5.7,   0.00,   0.00, 1024.0,    0.3, -999.0
20-05-2023, 00:18:28,     39,    0.2,    5.7,   0.00,   0.00, 1024.0,    0.4, -999.0
20-05-2023, 00:18:38,     39,    0.0,    5.7,   0.00,   0.00, 1023.9,    0.8, -999.0
20-05-2023, 00:18:48,     37,    0.0,    5.6,   0.00,   0.00, 1023.9,    0.7, -999.0
20-05-2023, 00:18:58,     38,    1.0,    5.6,   0.00,   0.00, 1024.0,    0.5, -999.0
20-05-2023, 00:19:08,     38,    0.1,    5.6,   0.00,   0.00, 1023.9,    0.8, -999.0
20-05-2023, 00:19:18,     38,    0.0,    5.5,   0.00,   0.00, 1023.9,    0.5, -999.0
20-05-2023, 00:19:28,     38,    0.0,    5.5,   0.00,   0.00, 1023.9,    0.8, -999.0
20-05-2023, 00:19:38,     39,    0.7,    5.5,   0.00,   0.00, 1024.0,    1.0, -999.0
20-05-2023, 00:19:48,     13,    0.8,    5.7,   0.00,   0.00, 1024.0,    0.6, -999.0
20-05-2023, 00:19:58,     13,    0.0,    5.6,   0.00,   0.00, 1023.9,    1.0, -999.0
20-05-2023, 00:20:08,     12,    0.0,    5.6,   0.00,   0.00, 1023.9,    0.6, -999.0
20-05-2023, 00:20:18,     13,    0.0,    5.6,   0.00,   0.00, 1023.9,    0.5, -999.0
20-05-2023, 00:20:28,     29,    0.1,    5.6,   0.00,   0.00, 1024.0,    0.7, -999.0
20-05-2023, 00:20:38,     28,    0.2,    5.7,   0.00,   0.00, 1024.0,    0.7, -999.0
20-05-2023, 00:20:48,     28,    0.4,    5.7,   0.00,   0.00, 1024.0,    0.6, -999.0
20-05-2023, 00:20:58,     28,    0.0,    5.5,   0.00,   0.00, 1023.9,    0.5, -999.0
20-05-2023, 00:21:08,     28,    0.0,    5.6,   0.00,   0.00, 1023.9,    0.5, -999.0
20-05-2023, 00:21:18,     28,    0.0,    5.6,   0.00,   0.00, 1023.9,    0.5, -999.0
20-05-2023, 00:21:28,     28,    0.0,    5.6,   0.00,   0.00, 1023.9,    0.7, -999.0
20-05-2023, 00:21:38,     28,    0.0,    5.6,   0.00,   0.00, 1023.9,    0.4, -999.0
20-05-2023, 00:21:48,     28,    0.0,    5.5,   0.00,   0.00, 1023.9,    0.8, -999.0
20-05-2023, 00:21:58,     28,    0.1,    5.6,   0.00,   0.00, 1023.9,    0.6, -999.0
20-05-2023, 00:22:07,     28,    0.0,    5.5,   0.00,   0.00, 1023.9,    0.8, -999.0
20-05-2023, 00:22:18,     28,    0.0,    5.5,   0.00,   0.00, 1023.9,    0.5, -999.0
20-05-2023, 00:22:28,     29,    0.5,    5.6,   0.00,   0.00, 1024.0,    0.7, -999.0
20-05-2023, 00:22:38,     28,    0.0,    5.6,   0.00,   0.00, 1024.0,    0.7, -999.0
20-05-2023, 00:22:48,      0,    1.0,    5.7,   0.00,   0.00, 1024.0,    0.7, -999.0
20-05-2023, 00:22:58,     21,    0.4,    5.7,   0.00,   0.00, 1024.0,    0.8, -999.0
20-05-2023, 00:23:08,     20,    0.0,    5.6,   0.00,   0.00, 1023.9,    0.6, -999.0
20-05-2023, 00:23:17,     21,    0.0,    5.6,   0.00,   0.00, 1023.9,    0.7, -999.0
20-05-2023, 00:23:28,     20,    0.0,    5.7,   0.00,   0.00, 1024.0,    0.5, -999.0
20-05-2023, 00:23:38,     20,    0.0,    5.6,   0.00,   0.00, 1023.9,    0.5, -999.0
20-05-2023, 00:23:48,     21,    0.0,    5.5,   0.00,   0.00, 1023.9,    0.6, -999.0
20-05-2023, 00:23:57,     21,    0.0,    5.5,   0.00,   0.00, 1023.9,    0.6, -999.0
20-05-2023, 00:24:08,     33,    0.1,    5.6,   0.00,   0.00, 1023.9,    0.8, -999.0
20-05-2023, 00:24:18,     33,    0.3,    5.6,   0.00,   0.00, 1024.0,    0.5, -999.0
20-05-2023, 00:24:27,     33,    0.7,    5.6,   0.00,   0.00, 1024.0,    0.7, -999.0
20-05-2023, 00:24:37,     33,    0.0,    5.5,   0.00,   0.00, 1023.9,    0.6, -999.0
20-05-2023, 00:24:48,     34,    0.0,    5.6,   0.00,   0.00, 1023.9,    0.8, -999.0
20-05-2023, 00:24:57,     33,    0.0,    5.5,   0.00,   0.00, 1023.9,    0.3, -999.0
20-05-2023, 00:25:07,     33,    0.1,    5.6,   0.00,   0.00, 1024.0,    0.7, -999.0
20-05-2023, 00:25:17,     33,    0.0,    5.5,   0.00,   0.00, 1023.9,    0.7, -999.0
20-05-2023, 00:25:27,     33,    0.0,    5.5,   0.00,   0.00, 1023.9,    0.5, -999.0
20-05-2023, 00:25:37,     33,    0.0,    5.5,   0.00,   0.00, 1023.9,    1.0, -999.0
20-05-2023, 00:25:47,     33,    0.0,    5.5,   0.00,   0.00, 1023.9,    0.3, -999.0
20-05-2023, 00:25:58,     33,    0.0,    5.5,   0.00,   0.00, 1023.9,    0.5, -999.0
20-05-2023, 00:26:07,     33,    0.0,    5.5,   0.00,   0.00, 1023.9,    0.4, -999.0
20-05-2023, 00:26:17,     33,    0.0,    5.5,   0.00,   0.00, 1023.9,    0.5, -999.0
20-05-2023, 00:26:27,     33,    0.0,    5.6,   0.00,   0.00, 1023.9,    0.9, -999.0
20-05-2023, 00:26:37,     32,    0.0,    5.5,   0.00,   0.00, 1023.9,    0.2, -999.0
20-05-2023, 00:26:47,     37,    0.1,    5.6,   0.00,   0.00, 1023.9,    0.7, -999.0
20-05-2023, 00:26:57,     32,    1.1,    5.6,   0.00,   0.00, 1024.0,    0.7, -999.0
20-05-2023, 00:27:07,     32,    0.0,    5.6,   0.00,   0.00, 1023.9,    1.2, -999.0
20-05-2023, 00:27:17,     32,    0.0,    5.6,   0.00,   0.00, 1023.9,    1.1, -999.0
20-05-2023, 00:27:27,     32,    0.0,    5.6,   0.00,   0.00, 1023.9,    0.4, -999.0
20-05-2023, 00:27:37,     31,    0.0,    5.5,   0.00,   0.00, 1023.9,    0.8, -999.0
20-05-2023, 00:27:47,     32,    0.0,    5.5,   0.00,   0.00, 1023.9,    0.6, -999.0
20-05-2023, 00:27:57,     32,    0.0,    5.5,   0.00,   0.00, 1023.9,    0.6, -999.0
20-05-2023, 00:28:07,     18,    0.5,    5.5,   0.00,   0.00, 1024.0,    0.6, -999.0
20-05-2023, 00:28:17,     17,    0.2,    5.5,   0.00,   0.00, 1024.0,    0.9, -999.0
20-05-2023, 00:28:27,     17,    0.0,    5.4,   0.00,   0.00, 1023.9,    0.8, -999.0
20-05-2023, 00:28:37,     17,    0.0,    5.4,   0.00,   0.00, 1023.9,    0.4, -999.0
20-05-2023, 00:28:47,     17,    0.0,    5.5,   0.00,   0.00, 1023.9,    1.3, -999.0
20-05-2023, 00:28:57,     18,    0.0,    5.5,   0.00,   0.00, 1023.9,    0.3, -999.0
20-05-2023, 00:29:07,     28,    0.3,    5.5,   0.00,   0.00, 1024.0,    0.2, -999.0
20-05-2023, 00:29:17,     27,    0.5,    5.5,   0.00,   0.00, 1024.0,    0.7, -999.0
20-05-2023, 00:29:27,     27,    0.0,    5.4,   0.00,   0.00, 1023.9,    0.9, -999.0
20-05-2023, 00:29:37,     27,    0.0,    5.4,   0.00,   0.00, 1023.9,    0.8, -999.0
20-05-2023, 00:29:47,     27,    0.0,    5.4,   0.00,   0.00, 1023.9,    0.8, -999.0
20-05-2023, 00:29:57,     27,    0.0,    5.4,   0.00,   0.00, 1023.9,    0.6, -999.0
20-05-2023, 00:30:07,     27,    0.0,    5.4,   0.00,   0.00, 1023.9,    0.6, -999.0
20-05-2023, 00:30:17,     27,    0.0,    5.4,   0.00,   0.00, 1023.9,    0.8, -999.0
20-05-2023, 00:30:27,     27,    0.0,    5.5,   0.00,   0.00, 1023.9,    0.5, -999.0
20-05-2023, 00:30:37,     26,    0.0,    5.5,   0.00,   0.00, 1023.9,    0.4, -999.0
20-05-2023, 00:30:47,     28,    0.0,    5.5,   0.00,   0.00, 1024.0,    0.4, -999.0
20-05-2023, 00:30:57,     27,    0.0,    5.4,   0.00,   0.00, 1023.9,    0.7, -999.0
20-05-2023, 00:31:07,     27,    0.0,    5.5,   0.00,   0.00, 1023.9,    0.8, -999.0
20-05-2023, 00:31:17,     27,    0.0,    5.5,   0.00,   0.00, 1023.9,    0.7, -999.0
20-05-2023, 00:31:27,     27,    0.0,    5.5,   0.00,   0.00, 1023.9,    0.7, -999.0
20-05-2023, 00:31:36,     27,    0.0,    5.4,   0.00,   0.00, 1023.9,    0.5, -999.0
20-05-2023, 00:31:47,     27,    0.5,    5.4,   0.00,   0.00, 1024.0,    0.9, -999.0
20-05-2023, 00:31:57,     27,    0.0,    5.4,   0.00,   0.00, 1023.9,    0.9, -999.0
20-05-2023, 00:32:06,     27,    0.1,    5.5,   0.00,   0.00, 1024.0,    0.6, -999.0
20-05-2023, 00:32:16,     27,    0.0,    5.4,   0.00,   0.00, 1023.9,    0.6, -999.0
20-05-2023, 00:32:27,     27,    0.0,    5.4,   0.00,   0.00, 1023.9,    0.7, -999.0
20-05-2023, 00:32:37,     27,    0.0,    5.4,   0.00,   0.00, 1023.9,    0.6, -999.0
20-05-2023, 00:32:46,     27,    0.0,    5.4,   0.00,   0.00, 1023.9,    0.5, -999.0
20-05-2023, 00:32:56,     27,    0.0,    5.4,   0.00,   0.00, 1023.9,    0.8, -999.0
20-05-2023, 00:33:07,     27,    0.0,    5.4,   0.00,   0.00, 1023.9,    0.6, -999.0
20-05-2023, 00:33:16,     27,    0.0,    5.5,   0.00,   0.00, 1023.9,    0.5, -999.0
20-05-2023, 00:33:26,     27,    0.0,    5.4,   0.00,   0.00, 1023.9,    0.6, -999.0
20-05-2023, 00:33:36,     27,    0.0,    5.4,   0.00,   0.00, 1023.9,    0.4, -999.0
20-05-2023, 00:33:47,     26,    0.0,    5.4,   0.00,   0.00, 1023.9,    0.7, -999.0
20-05-2023, 00:33:56,     27,    0.0,    5.4,   0.00,   0.00, 1023.9,    0.8, -999.0
20-05-2023, 00:34:06,     27,    0.0,    5.4,   0.00,   0.00, 1023.9,    0.6, -999.0
20-05-2023, 00:34:17,     27,    0.0,    5.4,   0.00,   0.00, 1023.9,    0.5, -999.0
20-05-2023, 00:34:26,     27,    0.0,    5.4,   0.00,   0.00, 1023.9,    0.6, -999.0
20-05-2023, 00:34:36,     27,    0.0,    5.4,   0.00,   0.00, 1023.9,    0.8, -999.0
20-05-2023, 00:34:46,     27,    0.0,    5.4,   0.00,   0.00, 1023.9,    0.4, -999.0
20-05-2023, 00:34:56,     27,    0.0,    5.4,   0.00,   0.00, 1023.9,    1.0, -999.0
20-05-2023, 00:35:06,     27,    0.0,    5.4,   0.00,   0.00, 1023.9,    0.5, -999.0
20-05-2023, 00:35:16,     27,    0.0,    5.4,   0.00,   0.00, 1023.9,    0.8, -999.0
20-05-2023, 00:35:26,     27,    0.0,    5.4,   0.00,   0.00, 1023.9,    0.5, -999.0
20-05-2023, 00:35:36,     27,    0.0,    5.4,   0.00,   0.00, 1023.9,    0.6, -999.0
20-05-2023, 00:35:46,     27,    0.0,    5.3,   0.00,   0.00, 1023.9,    0.8, -999.0
20-05-2023, 00:35:56,     27,    0.0,    5.3,   0.00,   0.00, 1023.9,    0.7, -999.0
20-05-2023, 00:36:06,     27,    0.0,    5.3,   0.00,   0.00, 1023.9,    0.4, -999.0
20-05-2023, 00:36:16,     27,    0.0,    5.4,   0.00,   0.00, 1023.9,    1.0, -999.0
20-05-2023, 00:36:26,     27,    0.0,    5.2,   0.00,   0.00, 1023.9,    0.5, -999.0
20-05-2023, 00:36:36,     27,    0.0,    5.3,   0.00,   0.00, 1023.9,    0.5, -999.0
20-05-2023, 00:36:46,     27,    0.0,    5.3,   0.00,   0.00, 1023.9,    0.6, -999.0
20-05-2023, 00:36:56,     27,    0.0,    5.3,   0.00,   0.00, 1023.9,    0.5, -999.0
20-05-2023, 00:37:06,     27,    0.0,    5.4,   0.00,   0.00, 1023.9,    0.6, -999.0
20-05-2023, 00:37:16,     27,    0.0,    5.4,   0.00,   0.00, 1023.9,    0.7, -999.0
20-05-2023, 00:37:26,     27,    0.0,    5.3,   0.00,   0.00, 1023.9,    0.7, -999.0
20-05-2023, 00:37:36,     27,    0.0,    5.4,   0.00,   0.00, 1023.9,    0.5, -999.0
20-05-2023, 00:37:46,     27,    0.0,    5.4,   0.00,   0.00, 1023.9,    0.6, -999.0
20-05-2023, 00:37:56,     27,    0.0,    5.4,   0.00,   0.00, 1023.9,    0.8, -999.0
20-05-2023, 00:38:06,     27,    0.0,    5.3,   0.00,   0.00, 1023.9,    0.8, -999.0
20-05-2023, 00:38:16,     27,    0.0,    5.4,   0.00,   0.00, 1023.9,    0.6, -999.0
20-05-2023, 00:38:26,     27,    0.0,    5.3,   0.00,   0.00, 1023.9,    0.7, -999.0
20-05-2023, 00:38:36,     27,    0.0,    5.4,   0.00,   0.00, 1023.9,    0.6, -999.0
20-05-2023, 00:38:46,     27,    0.0,    5.4,   0.00,   0.00, 1023.9,    0.8, -999.0
20-05-2023, 00:38:56,     27,    0.0,    5.5,   0.00,   0.00, 1023.9,    0.8, -999.0
20-05-2023, 00:39:06,     27,    0.0,    5.6,   0.00,   0.00, 1023.9,    0.8, -999.0
20-05-2023, 00:39:16,     27,    0.0,    5.5,   0.00,   0.00, 1023.9,    0.8, -999.0
20-05-2023, 00:39:26,     27,    0.0,    5.4,   0.00,   0.00, 1023.9,    0.7, -999.0
20-05-2023, 00:39:36,     27,    0.0,    5.4,   0.00,   0.00, 1023.9,    0.6, -999.0
20-05-2023, 00:39:46,     27,    0.0,    5.4,   0.00,   0.00, 1023.9,    0.6, -999.0
20-05-2023, 00:39:55,     27,    0.0,    5.4,   0.00,   0.00, 1023.9,    0.7, -999.0
20-05-2023, 00:40:06,     27,    0.0,    5.4,   0.00,   0.00, 1023.9,    0.6, -999.0
20-05-2023, 00:40:16,     27,    0.0,    5.3,   0.00,   0.00, 1023.9,    0.6, -999.0
20-05-2023, 00:40:26,     27,    0.0,    5.4,   0.00,   0.00, 1023.9,    0.5, -999.0
20-05-2023, 00:40:35,     27,    0.0,    5.4,   0.00,   0.00, 1023.9,    0.7, -999.0
20-05-2023, 00:40:46,     27,    0.0,    5.4,   0.00,   0.00, 1023.9,    0.5, -999.0
20-05-2023, 00:40:56,     27,    0.0,    5.4,   0.00,   0.00, 1023.9,    0.5, -999.0
20-05-2023, 00:41:05,     27,    0.0,    5.3,   0.00,   0.00, 1023.9,    0.9, -999.0
20-05-2023, 00:41:15,     27,    0.0,    5.4,   0.00,   0.00, 1023.9,    0.5, -999.0
20-05-2023, 00:41:26,     30,    0.0,    5.4,   0.00,   0.00, 1023.9,    0.5, -999.0
20-05-2023, 00:41:36,     30,    0.0,    5.4,   0.00,   0.00, 1023.9,    0.6, -999.0
20-05-2023, 00:41:45,     31,    0.0,    5.4,   0.00,   0.00, 1023.9,    0.8, -999.0
20-05-2023, 00:41:55,     30,    0.0,    5.5,   0.00,   0.00, 1023.9,    0.6, -999.0
20-05-2023, 00:42:06,     30,    0.0,    5.4,   0.00,   0.00, 1023.9,    0.7, -999.0
20-05-2023, 00:42:15,     32,    0.0,    5.3,   0.00,   0.00, 1023.9,    0.6, -999.0
20-05-2023, 00:42:25,      7,    0.0,    5.3,   0.00,   0.00, 1023.9,    0.6, -999.0
20-05-2023, 00:42:35,      6,    0.0,    5.4,   0.00,   0.00, 1023.9,    0.7, -999.0
20-05-2023, 00:42:45,     13,    0.0,    5.3,   0.00,   0.00, 1023.9,    0.4, -999.0
20-05-2023, 00:42:55,     13,    0.0,    5.4,   0.00,   0.00, 1023.9,    0.6, -999.0
20-05-2023, 00:43:05,     13,    0.0,    5.5,   0.00,   0.00, 1023.9,    0.7, -999.0
20-05-2023, 00:43:15,     13,    0.0,    5.4,   0.00,   0.00, 1023.9,    0.6, -999.0
20-05-2023, 00:43:25,     13,    0.0,    5.4,   0.00,   0.00, 1023.9,    0.6, -999.0
20-05-2023, 00:43:35,     13,    0.0,    5.4,   0.00,   0.00, 1023.9,    0.5, -999.0
20-05-2023, 00:43:45,     13,    0.0,    5.4,   0.00,   0.00, 1023.9,    1.0, -999.0
20-05-2023, 00:43:55,     13,    0.0,    5.4,   0.00,   0.00, 1023.9,    0.5, -999.0
20-05-2023, 00:44:05,     13,    0.0,    5.4,   0.00,   0.00, 1023.9,    0.6, -999.0
20-05-2023, 00:44:15,     13,    0.0,    5.4,   0.00,   0.00, 1023.9,    0.7, -999.0
20-05-2023, 00:44:25,     13,    0.0,    5.4,   0.00,   0.00, 1023.9,    0.3, -999.0
20-05-2023, 00:44:35,     13,    0.0,    5.4,   0.00,   0.00, 1023.9,    0.6, -999.0
20-05-2023, 00:44:45,     13,    0.0,    5.4,   0.00,   0.00, 1023.9,    0.8, -999.0
20-05-2023, 00:44:55,     13,    0.0,    5.4,   0.00,   0.00, 1023.9,    0.5, -999.0
20-05-2023, 00:45:05,     13,    0.0,    5.3,   0.00,   0.00, 1023.9,    0.5, -999.0
20-05-2023, 00:45:15,     13,    0.0,    5.3,   0.00,   0.00, 1023.9,    0.5, -999.0
20-05-2023, 00:45:25,     13,    0.0,    5.4,   0.00,   0.00, 1023.9,    0.6, -999.0
20-05-2023, 00:45:35,     13,    0.0,    5.3,   0.00,   0.00, 1023.9,    0.7, -999.0
20-05-2023, 00:45:45,     13,    0.0,    5.3,   0.00,   0.00, 1023.9,    0.5, -999.0
20-05-2023, 00:45:55,     13,    0.0,    5.3,   0.00,   0.00, 1023.9,    0.2, -999.0
20-05-2023, 00:46:05,     13,    0.0,    5.3,   0.00,   0.00, 1023.9,    0.2, -999.0
20-05-2023, 00:46:15,     13,    0.0,    5.3,   0.00,   0.00, 1023.9,    1.0, -999.0
20-05-2023, 00:46:25,     13,    0.0,    5.2,   0.00,   0.00, 1023.9,    0.6, -999.0
20-05-2023, 00:46:35,     13,    0.0,    5.3,   0.00,   0.00, 1023.9,    0.7, -999.0
20-05-2023, 00:46:45,     13,    0.0,    5.3,   0.00,   0.00, 1023.9,    0.3, -999.0